Location: Ch?enovice
(49.7164°N, 15.2160°E)
Time: 21:50:09
(UTC+00:00)

EXPRESS MD2 - Pass Details

Date: 23 May 2024
Orbit: 261 x 3330 km, 49.9° (Epoch: 20 June)

Event Time Altitude Azimuth Distance (km) Brightness Sun altitude
Exits shadow 23:29:55 - 101° (ESE) 2,057 6.2 -19.2°
Enters shadow 01:03:22 -56° 245° (WSW) 12,251 10.0 -14.2°
Maximum altitude 01:34:26 47° 152° (SSE) 619 3.4 -11.4°
